Preview of NWS' New Version of Forecast
This preview is not operational and should not be used for support decisions.

Regional Weather Roundup (RWR)

Issued by National Weather Service (NWS)

                            
000
ASUS43 KLMK 171910
RWRKY 
KENTUCKY REGIONAL WEATHER ROUNDUP
NATIONAL WEATHER SERVICE LOUISVILLE KY
200 PM EST MON DEC 17 2018

NOTE "FAIR" INDICATES FEW OR NO CLOUDS BELOW 12,000 FEET
WITH NO SIGNIFICANT WEATHER AND/OR OBSTRUCTIONS TO VISIBILITY.

KYZ001>023-026-027-061>063-070>075-172000-
WESTERN AND SOUTH CENTRAL KENTUCKY
  
CITY           SKY/WX    TMP DP  RH WIND       PRES   REMARKS
PADUCAH        FAIR      55  35  47 NW7       30.21F                  
HENDERSON      FAIR      50  33  52 W7        30.20F                  
OWENSBORO      FAIR      51  32  48 NW8       30.19F                  
HOPKINSVILLE   FAIR      54  33  44 NW7       30.18F                  
BOWLING GREEN  FAIR      55  34  45 SW6       30.18F                  
GLASGOW        FAIR      53  37  55 W8        30.17F                  
$$

KYZ024-025-028>034-038-045-046-053-172000-
NORTH CENTRAL KENTUCKY
  
CITY           SKY/WX    TMP DP  RH WIND       PRES   REMARKS
LOUISVILLE/SDF FAIR      54  32  43 W8        30.14F                  
LOUISVILLE/LOU FAIR      53  27  36 W6        30.14F                  
FORT KNOX      FAIR      51  34  51 W8        30.16F                  
$$

KYZ035>037-039>044-047>052-055>060-089>105-172000-
NORTHEAST KENTUCKY
  
CITY           SKY/WX    TMP DP  RH WIND       PRES   REMARKS
LEXINGTON      FAIR      50  35  56 W10       30.12F                  
COVINGTON      FAIR      49  25  39 NW12      30.10F                  
FRANKFORT      FAIR      50  31  48 NW8       30.11F                  
$$

KYZ054-064>069-076>088-106>120-172000-
SOUTHEAST KENTUCKY
  
CITY           SKY/WX    TMP DP  RH WIND       PRES   REMARKS
JACKSON        FAIR      52  38  58 VRB3      30.10F                  
LONDON         FAIR      47  39  74 SW7       30.13F                  
SOMERSET       FAIR      48  36  61 W8        30.16F                  
MIDDLESBORO    FAIR      55  30  39 W7        30.14S                  
MONTICELLO     FAIR      52  39  61 W17       30.17F                  
$$